Regional Weather Roundup
Issued by NWS

Home | Current Version | Previous Version | Text Only | Print | Product List | Glossary Off
Versions: 1 2 3 4 5 6 7 8 9 10 11 12 13 14 15 16 17 18 19 20 21 22 23 24 25 26 27 28 29 30 31 32 33 34 35 36 37 38 39 40 41 42 43 44 45 46 47 48 49 50

310
ASUS45 KCYS 301110
RWRWY

WYOMING REGIONAL WEATHER ROUNDUP
NATIONAL WEATHER SERVICE CHEYENNE WY
500 AM MDT MON MAY 30 2016

NOTE:  "FAIR" INDICATES FEW OR NO CLOUDS BELOW 12,000 FEET
WITH NO SIGNIFICANT WEATHER AND/OR OBSTRUCTIONS TO VISIBILITY.

WYZ001-301200-
YELLOWSTONE NATIONAL PARK

CITY           SKY/WX    TMP DP  RH WIND       PRES   REMARKS
LK YELLOWSTONE   N/A     37  35  92 CALM      30.17S
W YELLOWSTONE  NOT AVBL

$$
WYZ002>013-054>058-071-098>099-301200-
NORTHERN WYOMING

CITY           SKY/WX    TMP DP  RH WIND       PRES   REMARKS
JACKSON        FAIR      43  37  81 E5        30.13R
CODY           FAIR      54  37  54 W15G21    30.02R
GREYBULL       FAIR      60  42  51 NW12      29.94R
WORLAND        MOCLDY    59  40  49 N12       29.96R
SHERIDAN       FAIR      54  44  69 NW14G20   29.93R
BUFFALO        CLOUDY    60  38  43 N12G28    29.95R
GILLETTE       FAIR      55  41  59 S10       29.90R
HULETT         FAIR      57  45  62 NW3       29.91S
NEWCASTLE      FAIR      54  41  62 SE9       29.95S

$$
WYZ014>020-022>026-101>103-301200-
CENTRAL WYOMING

CITY           SKY/WX    TMP DP  RH WIND       PRES   REMARKS
BIG PINEY      FAIR      41  38  89 CALM      30.16R
PINEDALE       FAIR      37  37 100 W3        30.17R
DUBOIS         FAIR      43  32  65 NW14      30.12R
LANDER         FAIR      56  36  47 S3        30.01R
RIVERTON       MOCLDY    53  36  52 NW12      30.02S
CASPER         FAIR      52  38  58 SW15      30.01R
DOUGLAS          N/A    N/A N/A N/A MISG      30.00S

$$
WYZ021-027>030-104>119-301200-
SOUTHERN WYOMING

CITY           SKY/WX    TMP DP  RH WIND       PRES   REMARKS
EVANSTON       FAIR      43  38  82 S8        30.19F
KEMMERER         N/A     41  37  87 SW7       30.20R
FORT BRIDGER   SUNNY     45  41  87 SW12      30.20F
ROCK SPRINGS   FAIR      45  40  82 SW14      30.15F
DIXON          FAIR      42  38  87 E5        30.18S
RAWLINS        FAIR      46  36  68 SW10      30.14R
SARATOGA       FAIR      37  34  87 W5        30.16S WCI  34
LARAMIE        FAIR      40  33  76 S5        30.14F
CHEYENNE       FAIR      43  37  79 W8        30.08F
TORRINGTON     FAIR      51  43  74 SE3       29.99F
PINE BLUFFS    FAIR      43  41  93 CALM      30.06F

$$




USA.gov is the U.S. government's official web portal to all federal, state and local government web resources and services.